[[{"header":{"parameterUnit":"m.s-1","parameterCategory":1,"la1":30.2991,"la2":30.254,"lo1":-89.0895,"lo2":-89.0444,"dy":0.0017,"dx":0.0017,"nx":28,"ny":28,"refTime":"2024-10-08T21:00:00:Z","depth":0,"parameterNumber":2,"parameterNumberName":"U-component_of_WINDS"},"data":[0,0,0,0,0,0,0,0,0,0,0,0,0,0,0,0,0,0,0,0,0,0,0,0,0,0,0,0,0,0,0,0,0,0,0,0,0,0,0,0,0,0,0,0,0,0,0,0,0,0,0,0,0,0,0,0,0,0,-1.6081,-1.6082,0,-1.616,-1.6161,-1.6161,-1.6119,-1.6117,-1.6115,-1.6113,-1.6195,-1.6199,-1.6204,0,0,0,0,0,0,0,0,0,0,0,0,0,-1.5895,-1.5898,-1.6081,-1.6082,-1.6083,-1.6159,-1.6161,-1.6162,-1.6119,-1.6117,-1.6114,-1.6112,-1.6194,-1.6199,-1.6204,0,0,0,0,0,0,0,0,0,0,0,0,0,-1.5975,-1.59,-1.6081,-1.6071,-1.6071,-1.6159,-1.6161,-1.6162,-1.612,-1.6117,-1.6113,-1.611,-1.6192,-1.6198,-1.6205,-1.6308,0,0,-1.6224,-1.6227,0,0,0,0,0,0,0,0,-1.597,-1.5982,-1.6071,-1.6072,-1.6072,-1.6126,-1.6125,-1.6211,-1.6121,-1.6101,-1.6112,-1.6109,-1.6175,-1.6183,-1.6205,-1.6312,-1.6316,-1.6225,-1.6228,-1.6231,-1.6233,0,0,0,0,0,0,0,-1.5965,-1.5978,-1.6112,-1.6073,-1.6073,-1.6063,-1.6071,-1.6141,-1.6155,-1.6103,-1.61,-1.611,-1.6175,-1.6199,-1.6206,-1.6317,-1.6224,-1.623,-1.6234,-1.6236,-1.6513,-1.6517,0,0,0,0,0,0,-1.596,-1.5974,-1.6109,-1.6114,-1.6012,-1.6069,-1.6078,-1.6112,-1.6154,-1.6158,-1.6112,-1.6107,-1.6189,-1.6199,-1.6209,-1.6334,-1.6231,-1.6237,-1.6241,-1.651,-1.6514,-1.6518,0,0,0,0,0,0,-1.5956,-1.5972,-1.6106,-1.6043,-1.606,-1.6075,-1.6114,-1.6115,-1.6139,-1.6162,-1.6164,-1.6134,-1.6187,-1.62,-1.6284,-1.6336,-1.624,-1.6246,-1.6506,-1.6511,-1.6516,-1.6583,0,0,0,0,0,0,-1.5951,-1.5971,-1.601,-1.6045,-1.6063,-1.618,-1.6118,-1.6119,-1.615,-1.6144,-1.6183,-1.6186,-1.6186,-1.6275,-1.629,-1.6343,-1.625,-1.6501,-1.6508,-1.6514,-1.6577,-1.659,-1.6602,0,0,0,0,0,-1.5944,-1.6027,-1.6013,-1.6029,-1.6113,-1.6183,-1.6194,-1.6191,-1.6154,-1.6194,-1.6208,-1.6185,-1.6327,-1.6283,-1.6301,-1.6356,-1.6498,-1.6506,-1.6514,-1.6571,-1.6588,-1.6602,0,0,0,0,0,0,-1.5999,-1.6031,-1.6016,-1.6112,-1.6145,-1.6175,-1.6226,-1.6208,-1.6253,-1.6246,-1.6241,-1.625,-1.6338,-1.6355,-1.6306,-1.6458,-1.6407,-1.6419,-1.6444,-1.6461,-1.6473,-1.6468,-1.6256,0,0,0,0,0,-1.6022,-1.6076,-1.6101,-1.6183,-1.62,-1.621,-1.6241,-1.6235,-1.627,-1.6284,-1.6304,-1.6339,-1.6392,-1.6427,-1.6476,-1.6578,-1.6586,-1.6624,-1.6637,-1.6648,-1.6659,-1.6715,-1.6732,-1.6544,-1.6544,-1.6544,0,0,-1.6071,-1.6095,-1.6129,-1.6195,-1.622,-1.6277,-1.6223,-1.6285,-1.6327,-1.6294,-1.6374,-1.639,-1.6429,-1.6522,-1.6564,-1.6539,-1.6712,-1.6658,-1.6666,-1.6672,-1.6725,-1.6742,-1.6758,-1.655,-1.6549,-1.6548,0,0,-1.6189,-1.6212,-1.6283,-1.6309,-1.6347,-1.6353,-1.637,-1.6403,-1.6413,-1.6493,-1.6469,-1.6519,-1.661,-1.6638,-1.6665,-1.6792,-1.6773,-1.6808,-1.6876,-1.6931,-1.6945,-1.6959,-1.7005,-1.7022,-1.6819,-1.6819,-1.6819,0,-1.6245,-1.6329,-1.6322,-1.6386,-1.6416,-1.6387,-1.646,-1.6485,-1.6538,-1.656,-1.653,-1.6643,-1.6667,-1.6767,-1.6798,-1.682,-1.684,-1.6805,-1.6944,-1.6957,-1.6969,-1.7014,-1.7031,-1.6823,-1.6823,-1.6822,-1.6822,0,-1.6396,-1.6455,-1.6508,-1.6559,-1.6594,-1.6663,-1.6666,-1.6703,-1.6694,-1.6703,-1.6786,-1.6813,-1.6868,-1.689,-1.6883,-1.699,-1.6973,-1.6944,-1.6892,-1.6991,-1.7033,-1.705,-1.6829,-1.6828,-1.6826,-1.6825,0,0,-1.6554,-1.6599,-1.6619,-1.6642,-1.6681,-1.6727,-1.6793,-1.6846,-1.6878,-1.6915,-1.6971,-1.7048,-1.7021,-1.7051,-1.7046,-1.7093,-1.7194,-1.7058,-1.7059,-1.7084,-1.7315,-1.7338,-1.7358,-1.718,-1.7183,-1.7186,-1.7312,0,-1.6676,-1.6792,-1.6787,-1.6896,-1.695,-1.6923,-1.6981,-1.7012,-1.7021,-1.7069,-1.708,-1.7135,-1.7094,-1.7112,-1.7158,-1.7172,-1.724,-1.7162,-1.7234,-1.7237,-1.7227,-1.7379,-1.7404,-1.7522,-1.7328,-1.7331,-1.7333,0,-1.6834,-1.6876,-1.699,-1.7021,-1.7044,-1.7096,-1.7144,-1.719,-1.7224,-1.7228,-1.726,-1.7247,-1.7315,-1.726,-1.7354,-1.7301,-1.733,-1.7341,-1.7345,-1.7354,-1.7292,-1.7394,-1.756,-1.7578,-1.7358,-1.7356,-1.7355,0,-1.6939,-1.7024,-1.7103,-1.7123,-1.7161,-1.7199,-1.7217,-1.7247,-1.7279,-1.7321,-1.7342,-1.7391,-1.7419,-1.7457,-1.7458,-1.7417,-1.7553,-1.7498,-1.756,-1.756,-1.7592,-1.759,-1.7767,-1.7606,-1.7606,-1.7606,-1.7605,0,-1.7077,-1.7149,-1.7151,-1.72,-1.7279,-1.7273,-1.7351,-1.7365,-1.7393,-1.7444,-1.7423,-1.7472,-1.7469,-1.7519,-1.7519,-1.7598,-1.761,-1.7616,-1.7616,-1.7619,-1.7619,-1.7639,-1.7632,-1.7611,-1.761,-1.7609,-1.7608,0,-1.721,-1.7214,-1.7299,-1.7327,-1.7336,-1.7393,-1.7418,-1.7465,-1.7471,-1.7537,-1.7552,-1.7564,-1.7621,-1.7625,-1.7691,-1.7692,-1.7787,-1.7777,-1.7776,-1.7775,-1.7837,-1.7832,-1.8035,-1.8062,-1.7882,-1.7884,-1.7886,0,-1.7299,-1.7353,-1.7387,-1.742,-1.7439,-1.7492,-1.7524,-1.752,-1.7554,-1.7597,-1.7639,-1.7694,-1.7738,-1.7831,-1.7845,-1.7896,-1.7888,-1.7955,-1.7896,-1.7898,-1.7891,-1.7889,-1.7895,-1.7968,-1.797,-1.7972,-1.7973,0,-1.7457,-1.7456,-1.7503,-1.7551,-1.759,-1.7627,-1.7662,-1.769,-1.7689,-1.7729,-1.7787,-1.7821,-1.7889,-1.7944,-1.7993,-1.8012,-1.7993,-1.7991,-1.8008,-1.8014,-1.8012,-1.8015,-1.781,-1.7987,-1.7986,-1.7985,-1.7984,-1.7983,-1.7571,-1.7618,-1.765,-1.7703,-1.7728,-1.7761,-1.7807,-1.7819,-1.7867,-1.7921,-1.7915,-1.798,-1.8012,-1.8076,-1.8098,-1.8149,-1.8126,-1.8151,-1.8158,-1.8164,-1.8172,-1.8002,-1.8158,-1.8157,-1.8157,-1.8157,-1.8156,0,-1.773,-1.7748,-1.7797,-1.7846,-1.7888,-1.7865,-1.7902,-1.7939,-1.7996,-1.8027,-1.8071,-1.8137,-1.8191,-1.8209,-1.8261,-1.8298,-1.8291,-1.8312,-1.831,-1.8315,-1.8188,-1.8169,-1.8317,-1.8317,-1.8317,-1.8317,-1.8317,-1.8317,-1.7817,-1.7896,-1.7899,-1.799,-1.8008,-1.8071,-1.8094,-1.8124,-1.8149,-1.8225,-1.8269,-1.828,-1.8306,-1.8359,-1.8407,-1.8411,-1.8432,-1.8458,-1.8458,-1.834,-1.8324,-1.8309,-1.8291,-1.8462,-1.8462,-1.8581,-1.8582,-1.8583]},{"header":{"parameterUnit":"m.s-1","parameterCategory":1,"la1":30.2991,"la2":30.254,"lo1":-89.0895,"lo2":-89.0444,"dy":0.0017,"dx":0.0017,"nx":28,"ny":28,"refTime":"2024-10-08T21:00:00:Z","depth":0,"parameterNumber":3,"parameterNumberName":"V-component_of_WINDS"},"data":[0,0,0,0,0,0,0,0,0,0,0,0,0,0,0,0,0,0,0,0,0,0,0,0,0,0,0,0,0,0,0,0,0,0,0,0,0,0,0,0,0,0,0,0,0,0,0,0,0,0,0,0,0,0,0,0,0,0,-5.6104,-5.6104,0,-5.6174,-5.6175,-5.6176,-5.6087,-5.6083,-5.608,-5.6077,-5.6144,-5.6149,-5.6154,0,0,0,0,0,0,0,0,0,0,0,0,0,-5.5886,-5.589,-5.6104,-5.6105,-5.6105,-5.6174,-5.6175,-5.6176,-5.6087,-5.6083,-5.6079,-5.6076,-5.6143,-5.6148,-5.6154,0,0,0,0,0,0,0,0,0,0,0,0,0,-5.5971,-5.5891,-5.6103,-5.6069,-5.6067,-5.6174,-5.6175,-5.6177,-5.6088,-5.6083,-5.6078,-5.6074,-5.6141,-5.6148,-5.6155,-5.6297,0,0,-5.6177,-5.618,0,0,0,0,0,0,0,0,-5.5966,-5.5979,-5.6074,-5.6072,-5.607,-5.6117,-5.6123,-5.6217,-5.6089,-5.608,-5.6077,-5.6071,-5.6139,-5.6146,-5.617,-5.63,-5.6303,-5.6178,-5.6182,-5.6185,-5.6187,0,0,0,0,0,0,0,-5.596,-5.5975,-5.6131,-5.6075,-5.6073,-5.6049,-5.6055,-5.614,-5.6136,-5.608,-5.6074,-5.6084,-5.6137,-5.6163,-5.6171,-5.6304,-5.6178,-5.6184,-5.6188,-5.6191,-5.6554,-5.6559,0,0,0,0,0,0,-5.5959,-5.5971,-5.6129,-5.6134,-5.6005,-5.6057,-5.6064,-5.6107,-5.6135,-5.6134,-5.6088,-5.608,-5.6153,-5.6162,-5.6173,-5.6341,-5.6185,-5.6192,-5.6196,-5.6549,-5.6556,-5.6561,0,0,0,0,0,0,-5.5955,-5.5974,-5.6126,-5.6051,-5.6068,-5.6066,-5.6114,-5.611,-5.6137,-5.614,-5.6139,-5.6116,-5.615,-5.6162,-5.6267,-5.6342,-5.6195,-5.6202,-5.6543,-5.6551,-5.6558,-5.6679,0,0,0,0,0,0,-5.5949,-5.5973,-5.6028,-5.6053,-5.6073,-5.6222,-5.6119,-5.6115,-5.615,-5.614,-5.6166,-5.6166,-5.6147,-5.6257,-5.6274,-5.6349,-5.6208,-5.6536,-5.6547,-5.6556,-5.6668,-5.669,-5.6709,0,0,0,0,0,-5.5941,-5.6058,-5.6032,-5.6051,-5.6142,-5.6226,-5.6237,-5.6215,-5.6157,-5.6211,-5.6213,-5.6165,-5.6331,-5.6268,-5.6287,-5.6366,-5.6531,-5.6544,-5.6555,-5.6659,-5.6686,-5.6708,0,0,0,0,0,0,-5.6041,-5.6061,-5.6032,-5.616,-5.6193,-5.6211,-5.628,-5.6243,-5.6291,-5.6279,-5.6247,-5.6254,-5.6366,-5.6376,-5.6306,-5.6504,-5.6421,-5.6438,-5.6494,-5.6519,-5.6539,-5.6534,-5.6214,0,0,0,0,0,-5.6079,-5.6147,-5.616,-5.6272,-5.629,-5.6283,-5.6318,-5.6298,-5.6329,-5.6342,-5.6351,-5.6382,-5.6441,-5.648,-5.6535,-5.6669,-5.6673,-5.6732,-5.6752,-5.6769,-5.6783,-5.6854,-5.688,-5.6601,-5.66,-5.66,0,0,-5.6156,-5.6175,-5.622,-5.6293,-5.6315,-5.6385,-5.6294,-5.6372,-5.6423,-5.6353,-5.6453,-5.6461,-5.6493,-5.6613,-5.6667,-5.6625,-5.6861,-5.6784,-5.6797,-5.6802,-5.6869,-5.6896,-5.6919,-5.6609,-5.6607,-5.6606,0,0,-5.6332,-5.6354,-5.645,-5.6475,-5.6511,-5.6505,-5.6528,-5.6553,-5.6556,-5.6656,-5.6605,-5.6664,-5.6766,-5.6791,-5.6817,-5.7004,-5.696,-5.7022,-5.7127,-5.7197,-5.7219,-5.7238,-5.7304,-5.7329,-5.7036,-5.7036,-5.7037,0,-5.6423,-5.6529,-5.6503,-5.6586,-5.6619,-5.656,-5.6656,-5.668,-5.6732,-5.6755,-5.6708,-5.6835,-5.6853,-5.6978,-5.7023,-5.7046,-5.7071,-5.7019,-5.7218,-5.7237,-5.7255,-5.7318,-5.7343,-5.7044,-5.7043,-5.7042,-5.7041,0,-5.6638,-5.6712,-5.6785,-5.6838,-5.6879,-5.6968,-5.6955,-5.6999,-5.6975,-5.6973,-5.7075,-5.7094,-5.7151,-5.7179,-5.7156,-5.7301,-5.7274,-5.7224,-5.714,-5.729,-5.7348,-5.7372,-5.7054,-5.7051,-5.7049,-5.7048,0,0,-5.688,-5.6919,-5.6946,-5.6969,-5.7005,-5.706,-5.7145,-5.7203,-5.7241,-5.7278,-5.7348,-5.7436,-5.739,-5.7419,-5.7398,-5.7459,-5.7605,-5.74,-5.7401,-5.7438,-5.7765,-5.7804,-5.7832,-5.7577,-5.7581,-5.7585,-5.7763,0,-5.7057,-5.7207,-5.7187,-5.733,-5.7397,-5.7342,-5.7416,-5.7445,-5.7445,-5.7501,-5.75,-5.7564,-5.7498,-5.7515,-5.7573,-5.7575,-5.767,-5.7562,-5.764,-5.7643,-5.7634,-5.7862,-5.7903,-5.807,-5.7785,-5.7789,-5.7792,0,-5.7283,-5.7331,-5.7482,-5.7507,-5.7534,-5.7601,-5.7652,-5.7707,-5.7737,-5.7733,-5.7767,-5.7735,-5.7818,-5.7733,-5.7847,-5.7773,-5.7804,-5.7809,-5.7815,-5.7822,-5.7727,-5.7875,-5.8123,-5.8148,-5.7828,-5.7825,-5.7822,0,-5.7444,-5.7546,-5.7649,-5.7671,-5.7702,-5.7751,-5.7766,-5.7792,-5.7828,-5.7872,-5.7894,-5.7947,-5.7975,-5.8016,-5.7998,-5.7937,-5.8115,-5.8028,-5.8113,-5.8114,-5.8153,-5.8151,-5.8409,-5.8173,-5.8172,-5.8172,-5.8171,0,-5.7644,-5.7738,-5.7722,-5.7786,-5.7889,-5.7864,-5.7966,-5.7974,-5.7998,-5.8061,-5.8015,-5.8074,-5.8047,-5.8104,-5.809,-5.8186,-5.8199,-5.8197,-5.8192,-5.8202,-5.8202,-5.8221,-5.8209,-5.8179,-5.8177,-5.8176,-5.8175,0,-5.7842,-5.7835,-5.7944,-5.7965,-5.7973,-5.8048,-5.8065,-5.8124,-5.8121,-5.8201,-5.8218,-5.8214,-5.8278,-5.8264,-5.8335,-5.8325,-5.8446,-5.8426,-5.8437,-5.8432,-5.8517,-5.851,-5.8798,-5.8834,-5.8574,-5.8576,-5.8579,0,-5.797,-5.8041,-5.8071,-5.8111,-5.813,-5.8195,-5.8232,-5.8209,-5.8249,-5.8289,-5.8343,-5.8404,-5.8452,-5.8557,-5.8559,-5.8612,-5.8594,-5.8691,-5.8601,-5.8608,-5.8595,-5.8591,-5.8598,-5.8709,-5.8712,-5.8714,-5.8716,0,-5.8198,-5.8191,-5.8247,-5.8303,-5.8348,-5.839,-5.8427,-5.8461,-5.8442,-5.8488,-5.8555,-5.8592,-5.8665,-5.8726,-5.8775,-5.8788,-5.8749,-5.8744,-5.8767,-5.8777,-5.878,-5.8779,-5.8485,-5.8738,-5.8736,-5.8734,-5.8733,-5.8732,-5.8364,-5.8426,-5.8457,-5.852,-5.8546,-5.8582,-5.8638,-5.8643,-5.8699,-5.8758,-5.874,-5.8816,-5.8844,-5.8907,-5.8926,-5.8983,-5.8946,-5.8979,-5.8987,-5.8996,-5.9006,-5.8771,-5.8992,-5.8991,-5.8991,-5.899,-5.899,0,-5.859,-5.8607,-5.8667,-5.8721,-5.8771,-5.8731,-5.877,-5.8814,-5.8882,-5.8912,-5.896,-5.9036,-5.9095,-5.9102,-5.9157,-5.9201,-5.9185,-5.9217,-5.9213,-5.9217,-5.9036,-5.9011,-5.9229,-5.9229,-5.9229,-5.9229,-5.9229,-5.9229,-5.8714,-5.8815,-5.8812,-5.8925,-5.894,-5.9016,-5.9042,-5.9074,-5.9098,-5.9186,-5.9235,-5.9239,-5.926,-5.9316,-5.9367,-5.9367,-5.9389,-5.9429,-5.9422,-5.9253,-5.9229,-5.9206,-5.9183,-5.9434,-5.9434,-5.9597,-5.9599,-5.96]}]]